User: anonymous   Login
Location: *
(46.1006°N, 1.8394°E)
Time: 16:06:47
(UTC+00:00)
Language:

Cosmos 2227 Rocket - Orbit

View from above orbital plane
View from above orbital plane
View from above satellite
View from above satellite

Ground track
Ground track

The orbit data is extracted from the following two-line orbital elements,

1 22285U 92093B   19318.12928327  .00000192  00000-0  12345-3 0  9998
2 22285  71.0196 166.3398 0006022 240.1083 119.9441 14.15035076387019
Epoch (UTC): 14 November 2019 03:06:10
Eccentricity: 0.0006022
inclination: 71.0196°
perigee height: 838 km
apogee height: 846 km
right ascension of ascending node: 166.3398°
argument of perigee: 240.1083°
revolutions per day: 14.15035076
mean anomaly at epoch: 119.9441°
orbit number at epoch: 38701

The dashed part of the orbit path shows where the satellite is in the earth's shadow,  

DLR